User: anonymous   Login
Location: Valdosta
(30.8330°N, 83.2790°W)
Time: 23:33:51
(UTC-05:00)
Language:

Oscar 19 - Orbit

View from above orbital plane
View from above orbital plane
View from above satellite
View from above satellite

Ground track
Ground track

The orbit data is extracted from the following two-line orbital elements,

1 20442U 90005G   17055.78658194  .00000020  00000-0  23270-4 0  9992
2 20442  98.5674 353.4962 0012768 117.1241 243.1247 14.32849505415527
Epoch (UTC): 24 February 2017 18:52:40
Eccentricity: 0.0012768
inclination: 98.5674°
perigee height: 773 km
apogee height: 791 km
right ascension of ascending node: 353.4962°
argument of perigee: 117.1241°
revolutions per day: 14.32849505
mean anomaly at epoch: 243.1247°
orbit number at epoch: 41552

The dashed part of the orbit path shows where the satellite is in the earth's shadow,  

DLR